Home   Weather   Longreach   Past weeks
Flag for Australia

Past Weather in Longreach, Queensland, Australia — Yesterday and Last 2 Weeks

Now
66 °F

Mild.


Feels Like: 66 °F
Forecast: 80 / 61 °F
Wind: 8 mph from Southeast

Location: Longreach Airport

Current Time: May 22, 2019 at 9:59:12 pm

Latest Report: May 22, 2019 at 9:00 pm


Visibility: N/A

Pressure: 30.20 "Hg

Humidity: 47%

Dew Point: 45 °F

Location of LongreachLocation

Past Weather in Longreach — Graph

°F

Longreach Temperature Yesterday

Maximum temperature yesterday: 83 °F (at 3:00 pm)
Minimum temperature yesterday: 58 °F (at 4:00 am)
Average temperature yesterday: 70 °F

High & Low Weather Summary for the Past Weeks

 TemperatureHumidityPressure
High85 °F (May 15, 3:00 pm)82% (May 9, 7:00 am)30.31 "Hg (May 9, 7:00 am)
Low42 °F (May 11, 6:00 am)20% (May 16, 9:00 am)29.94 "Hg (May 9, 4:00 pm)
Average68 °F51%30.14 "Hg
* Reported May 7 7:00 pm — May 22 7:00 pm, Longreach. Weather by CustomWeather, © 2019

Note: Actual official high and low records may vary slightly from our data, if they occured in-between our weather recording intervals... More about our weather records

Advertising

Longreach Weather History for the Previous 24 Hours

Scroll right to see more
 ConditionsComfort  
Time TempWeatherWind HumidityBarometerVisibility
7:00 pm
Wed, May 22
72 °FMild.8 mph39%30.17 "HgN/A
6:00 pm76 °FPassing clouds.8 mph35%30.15 "HgN/A
4:00 pm80 °FPleasantly warm.15 mph35%30.14 "HgN/A
3:00 pm80 °FOvercast.15 mph33%30.14 "HgN/A
1:00 pm82 °FPleasantly warm.15 mph35%30.18 "HgN/A
12:00 pm80 °FWarm.12 mph40%30.22 "HgN/A
10:00 am76 °FMild.12 mph45%30.27 "HgN/A
9:00 am71 °FMild.13 mph54%30.27 "HgN/A
7:00 am57 °FCool.10 mph74%30.23 "HgN/A
6:00 am57 °FCool.9 mph75%30.21 "HgN/A
4:00 am58 °FCool.9 mph74%30.18 "HgN/A
3:00 am59 °FCool.9 mph73%30.18 "HgN/A
1:00 am61 °FCool.9 mph68%30.19 "HgN/A
12:00 am62 °FMild.9 mph65%30.19 "HgN/A
10:00 pm
Tue, May 21
65 °FMild.8 mph58%30.19 "HgN/A
9:00 pm67 °FMild.8 mph56%30.18 "HgN/A
Weather by CustomWeather, © 2019

See weather overview